Terminal Aerodrome Forecast
Issued by NWS Mobile, AL

Home | Current Version | Previous Version | Text Only | Print | Product List | Glossary On
Versions: 1 2 3 4 5 6 7 8 9 10 11 12 13 14 15 16 17 18 19 20 21 22 23 24 25 26 27 28 29 30 31 32 33 34 35
000
FTUS44 KMOB 260100 AAA
TAFMOB
TAF AMD
KMOB 260100Z 2601/2624 36005KT P6SM VCTS BKN020CB OVC050
      TEMPO 2601/2602 VRB10G20KT 2SM TSRA SCT010 BKN020CB OVC050
     FM260300 23005KT P6SM SCT250
     FM261800 23007KT P6SM VCTS SCT040CB=

USA.gov is the U.S. government's official web portal to all federal, state and local government web resources and services.